Mullan, ID

4:14 AM PDT on August 24, 2016 (GMT -0700)
Mullan Pass

Weather History for KMLP - October, 2013

Change the Weather History Date:

Wednesday, October 30, 2013

  Actual Average (K3TH) Record (K3TH)
Temperature  
Mean Temperature 27 °F -  
Max Temperature 33 °F 47 °F 60 °F (1999)
Min Temperature 21 °F 32 °F 10 °F (2002)
Degree Days  
Heating Degree Days 38    
Moisture  
Dew Point 19 °F    
Average Humidity 75    
Maximum Humidity 85    
Minimum Humidity 56    
Precipitation  
Precipitation 0.00 in - - ()
Sea Level Pressure  
Sea Level Pressure 30.05 in    
Wind  
Wind Speed 5 mph (WNW)    
Max Wind Speed 8 mph    
Max Gust Speed -    
Visibility 10 miles    
Events      
Averages and records for this station are not official NWS values.
T = Trace of Precipitation, MM = Missing Value Source: NWS Daily Summary

Daily Weather History Graph

Daily Weather History Graph

Search for Another Location

Airport or City:

Trip Planner

Search our weather history database for the weather conditions in past years. The results will help you decide how hot, cold, wet, or windy it might be!

Date:

Astronomy

Oct. 30, 2013 Rise Set
Actual Time 7:23 AM PDT 5:28 PM PDT
Civil Twilight 6:51 AM PDT 6:00 PM PDT
Nautical Twilight 6:15 AM PDT 6:36 PM PDT
Astronomical Twilight 5:40 AM PDT 7:11 PM PDT
Moon 3:01 AM PDT (10/30) 3:29 PM PDT (10/30)
Length of Visible Light 11h 08m
Length of Day
10h 04m
Waning Crescent, 16% of the Moon is Illuminated
Oct 30
Waning Crescent
Nov 3
New
Nov 9
First Quarter
Nov 17
Full
Nov 25
Last Quarter

Hourly Weather History & Observations

Time (PDT) Temp. Windchill Dew Point Humidity Pressure Visibility Wind Dir Wind Speed Gust Speed Precip Events Conditions
12:53 AM 24.1 °F 18.2 °F 18.0 °F 77% 29.99 in - West 4.6 mph - N/A   Clear
1:53 AM 25.0 °F 16.3 °F 18.0 °F 75% 29.97 in - SW 8.1 mph - N/A   Clear
2:53 AM 23.0 °F 15.8 °F 18.0 °F 81% 29.99 in - WNW 5.8 mph - N/A   Clear
3:53 AM 23.0 °F 17.0 °F 17.1 °F 78% 29.98 in - Variable 4.6 mph - N/A   Clear
4:53 AM 21.9 °F 13.4 °F 17.1 °F 82% 30.01 in - NW 6.9 mph - N/A   Clear
5:53 AM 21.9 °F 15.7 °F 18.0 °F 85% 30.02 in - WNW 4.6 mph - N/A   Clear
6:53 AM 21.9 °F 15.7 °F 18.0 °F 85% 30.04 in - West 4.6 mph - N/A   Clear
7:53 AM 23.0 °F 17.0 °F 18.0 °F 81% 30.04 in - West 4.6 mph - N/A   Clear
8:53 AM 24.1 °F 19.7 °F 18.0 °F 77% 30.06 in - Variable 3.5 mph - N/A   Clear
9:53 AM 25.0 °F 20.7 °F 18.0 °F 75% 30.08 in - Variable 3.5 mph - N/A   Clear
10:53 AM 27.0 °F 21.6 °F 18.0 °F 69% 30.06 in 10.0 mi NW 4.6 mph - N/A   Clear
11:53 AM 28.9 °F 25.2 °F 18.0 °F 64% 30.07 in 10.0 mi Variable 3.5 mph - N/A   Clear
12:53 PM 30.9 °F 26.2 °F 19.0 °F 61% 30.04 in 10.0 mi NW 4.6 mph - N/A   Clear
1:53 PM 33.1 °F 28.7 °F 19.0 °F 56% 30.03 in 10.0 mi NW 4.6 mph - N/A   Mostly Cloudy
2:53 PM 30.9 °F 26.2 °F 19.9 °F 64% 30.06 in 10.0 mi WNW 4.6 mph - N/A   Overcast
3:53 PM 30.0 °F 26.5 °F 19.9 °F 66% 30.07 in 10.0 mi Variable 3.5 mph - N/A   Overcast
4:53 PM 28.9 °F 25.2 °F 19.9 °F 69% 30.08 in 10.0 mi WNW 3.5 mph - N/A   Overcast
5:53 PM 28.0 °F 21.7 °F 21.0 °F 75% 30.10 in 10.0 mi WNW 5.8 mph - N/A   Overcast
6:53 PM 28.0 °F 24.2 °F 21.0 °F 75% 30.12 in 10.0 mi Variable 3.5 mph - N/A   Overcast
7:53 PM 28.0 °F 22.8 °F 21.9 °F 78% 30.11 in 10.0 mi Variable 4.6 mph - N/A   Overcast
8:53 PM 26.1 °F 21.9 °F 21.9 °F 84% 30.12 in 10.0 mi Variable 3.5 mph - N/A   Clear
9:53 PM 27.0 °F 20.5 °F 21.9 °F 81% 30.11 in 10.0 mi SW 5.8 mph - N/A   Clear
10:53 PM 26.1 °F 21.9 °F 21.9 °F 84% 30.09 in 10.0 mi Variable 3.5 mph - N/A   Mostly Cloudy
11:03 PM 26.6 °F 22.6 °F 21.2 °F 80% 29.99 in 10.0 mi WSW 3.5 mph - N/A   Mostly Cloudy
11:53 PM 27.0 °F 20.5 °F 21.0 °F 78% 30.08 in 10.0 mi Variable 5.8 mph - N/A   Overcast